User: anonymous   Login
Location: Fontevrault
(47.1823°N, 0.0493°E)
Time: 10:38:15
(UTC+00:00)
Language:

Meteor 2-20 - Orbit

View from above orbital plane
View from above orbital plane
View from above satellite
View from above satellite

Ground track
Ground track

The orbit data is extracted from the following two-line orbital elements,

1 20826U 90086A   21262.90816724 -.00000012  00000-0 -24413-4 0  9994
2 20826  82.5245 137.2600 0012824 199.2807 160.7869 13.84259420564783
Epoch (UTC): 19 September 2021 21:47:45
Eccentricity: 0.0012824
inclination: 82.5245°
perigee height: 939 km
apogee height: 958 km
right ascension of ascending node: 137.2600°
argument of perigee: 199.2807°
revolutions per day: 13.84259420
mean anomaly at epoch: 160.7869°
orbit number at epoch: 56478

The dashed part of the orbit path shows where the satellite is in the earth's shadow,  

DLR